Weather History for KAIG - February, 2014

Change the Weather History Date:

Tuesday, February 11, 2014

  Actual Average Record
Temperature  
Mean Temperature -10 °F -  
Max Temperature 9 °F 23 °F 44 °F (1999)
Min Temperature -28 °F 2 °F -28 °F (2014)
Degree Days  
Heating Degree Days 74    
Moisture  
Dew Point -15 °F    
Average Humidity 70    
Maximum Humidity 82    
Minimum Humidity 53    
Precipitation  
Precipitation 0.00 in - - ()
Sea Level Pressure  
Sea Level Pressure 30.27 in    
Wind  
Wind Speed 3 mph (SSW)    
Max Wind Speed 14 mph    
Max Gust Speed -    
Visibility 10 miles    
Events      
Averages and records for this station are not official NWS values.
T = Trace of Precipitation, MM = Missing Value Source: NWS Daily Summary

Daily Weather History Graph

Daily Weather History Graph

Search for Another Location

Airport or City:

Trip Planner

Search our weather history database for the weather conditions in past years. The results will help you decide how hot, cold, wet, or windy it might be!

Date:

Astronomy

Feb. 11, 2014 Rise Set
Actual Time 7:03 AM CST 5:18 PM CST
Civil Twilight 6:32 AM CST 5:49 PM CST
Nautical Twilight 5:58 AM CST 6:23 PM CST
Astronomical Twilight 5:24 AM CST 6:57 PM CST
Moon 2:35 PM CST (2/11) 4:44 AM CST (2/11)
Length of Visible Light 11h 16m
Length of Day
10h 15m
Waxing Gibbous, 91% of the Moon is Illuminated
Feb 11
Waxing Gibbous
Feb 14
Full
Feb 22
Last Quarter
Mar 1
New
Mar 8
First Quarter

Hourly Weather History & Observations

Time (CST) Temp. Windchill Dew Point Humidity Pressure Visibility Wind Dir Wind Speed Gust Speed Precip Events Conditions
12:15 AM -17.1 °F - -21.6 °F 80% 30.33 in 10.0 mi Calm Calm - N/A   Clear
12:35 AM -16.4 °F - -20.7 °F 81% 30.34 in 10.0 mi Calm Calm - N/A   Clear
12:55 AM -20.6 °F - -25.1 °F 80% 30.33 in 10.0 mi Calm Calm - N/A   Clear
1:15 AM -21.3 °F - -26.0 °F 79% 30.34 in 10.0 mi Calm Calm - N/A   Clear
1:35 AM -19.5 °F - -23.4 °F 82% 30.35 in 10.0 mi Calm Calm - N/A   Clear
1:55 AM -20.7 °F - -25.1 °F 80% 30.35 in 10.0 mi Calm Calm - N/A   Clear
2:15 AM -20.4 °F - -25.1 °F 79% 30.35 in 10.0 mi Calm Calm - N/A   Clear
2:35 AM -20.4 °F - -24.9 °F 80% 30.34 in 10.0 mi Calm Calm - N/A   Clear
2:55 AM -21.8 °F - -26.3 °F 80% 30.34 in 10.0 mi Calm Calm - N/A   Clear
3:15 AM -22.2 °F - -26.9 °F 79% 30.34 in 10.0 mi Calm Calm - N/A   Clear
3:35 AM -25.2 °F - -29.7 °F 79% 30.34 in 10.0 mi Calm Calm - N/A   Clear
3:55 AM -25.1 °F - -29.6 °F 79% 30.35 in 10.0 mi Calm Calm - N/A   Clear
4:15 AM -26.7 °F - -31.5 °F 78% 30.34 in 10.0 mi Calm Calm - N/A   Clear
4:35 AM -26.9 °F - -31.7 °F 78% 30.35 in 10.0 mi Calm Calm - N/A   Clear
4:55 AM -25.2 °F - -30.1 °F 78% 30.35 in 10.0 mi Calm Calm - N/A   Clear
5:15 AM -27.0 °F - -31.9 °F 78% 30.36 in 10.0 mi Calm Calm - N/A   Clear
5:35 AM -27.4 °F - -32.8 °F 75% 30.35 in 10.0 mi Calm Calm - N/A   Clear
5:55 AM -25.8 °F - -31.0 °F 76% 30.36 in 10.0 mi Calm Calm - N/A   Clear
6:15 AM -27.6 °F - -33.0 °F 75% 30.36 in 10.0 mi Calm Calm - N/A   Clear
6:35 AM -28.1 °F - -34.4 °F 72% 30.36 in 10.0 mi Calm Calm - N/A   Clear
6:55 AM -27.0 °F - -32.1 °F 77% 30.36 in 10.0 mi Calm Calm - N/A   Clear
7:15 AM -27.4 °F - -32.8 °F 75% 30.36 in 10.0 mi Calm Calm - N/A   Clear
7:35 AM -27.4 °F - -32.8 °F 75% 30.36 in 10.0 mi Calm Calm - N/A   Clear
7:55 AM -25.4 °F - -30.6 °F 76% 30.35 in 10.0 mi Calm Calm - N/A   Clear
8:15 AM -23.4 °F - -28.8 °F 76% 30.35 in 10.0 mi Calm Calm - N/A   Clear
8:35 AM -21.3 °F - -26.7 °F 76% 30.35 in 10.0 mi Calm Calm - N/A   Clear
8:55 AM -19.1 °F - -24.7 °F 76% 30.35 in 10.0 mi Calm Calm - N/A   Clear
9:15 AM -16.8 °F - -22.4 °F 76% 30.35 in 10.0 mi Calm Calm - N/A   Clear
9:35 AM -14.1 °F - -18.9 °F 79% 30.35 in 10.0 mi Calm Calm - N/A   Clear
9:55 AM -11.7 °F - -16.8 °F 78% 30.35 in 10.0 mi Calm Calm - N/A   Clear
10:15 AM -8.7 °F - -13.7 °F 79% 30.34 in 10.0 mi Calm Calm - N/A   Clear
10:35 AM -5.1 °F -13.6 °F -11.0 °F 76% 30.34 in 10.0 mi SSW 3.5 mph - N/A   Clear
10:55 AM 2.5 °F -12.2 °F -8.0 °F 62% 30.34 in 10.0 mi WSW 9.2 mph - N/A   Clear
11:15 AM 4.1 °F -12.0 °F -7.6 °F 58% 30.33 in 10.0 mi SW 11.5 mph - N/A   Clear
11:35 AM 4.6 °F -10.4 °F -6.9 °F 59% 30.33 in 10.0 mi WSW 10.4 mph - N/A   Clear
11:55 AM 5.0 °F -10.0 °F -6.9 °F 58% 30.32 in 10.0 mi WSW 10.4 mph - N/A   Clear
12:15 PM 5.7 °F -6.1 °F -6.7 °F 57% 30.31 in 10.0 mi WSW 6.9 mph - N/A   Clear
12:35 PM 6.8 °F -3.5 °F -5.8 °F 56% 30.30 in 10.0 mi SW 5.8 mph - N/A   Clear
12:55 PM 7.7 °F -3.7 °F -5.4 °F 55% 30.29 in 10.0 mi SW 6.9 mph - N/A   Clear
1:15 PM 8.6 °F -1.3 °F -5.1 °F 54% 30.28 in 10.0 mi SW 5.8 mph - N/A   Clear
1:35 PM 8.6 °F -4.7 °F -5.4 °F 53% 30.26 in 10.0 mi SW 9.2 mph - N/A   Clear
1:55 PM 9.1 °F -4.0 °F -4.2 °F 55% 30.26 in 10.0 mi SSW 9.2 mph - N/A   Clear
2:15 PM 9.5 °F -4.4 °F -4.0 °F 54% 30.25 in 10.0 mi SW 10.4 mph - N/A   Clear
2:35 PM 9.5 °F -5.2 °F -4.0 °F 54% 30.25 in 10.0 mi SW 11.5 mph - N/A   Clear
2:55 PM 9.5 °F -2.6 °F -3.6 °F 55% 30.24 in 10.0 mi SSW 8.1 mph - N/A   Clear
3:15 PM 9.1 °F -5.6 °F -4.0 °F 55% 30.24 in 10.0 mi SW 11.5 mph - N/A   Clear
3:35 PM 7.7 °F -4.8 °F -4.4 °F 58% 30.23 in 10.0 mi South 8.1 mph - N/A   Clear
3:55 PM 7.3 °F -7.1 °F -4.5 °F 58% 30.22 in 10.0 mi South 10.4 mph - N/A   Clear
4:15 PM 7.2 °F -8.1 °F -4.9 °F 58% 30.22 in 10.0 mi South 11.5 mph - N/A   Clear
4:35 PM 5.7 °F -9.1 °F -5.8 °F 59% 30.22 in 10.0 mi South 10.4 mph - N/A   Clear
4:55 PM 4.3 °F -10.9 °F -6.5 °F 61% 30.21 in 10.0 mi South 10.4 mph - N/A   Clear
5:15 PM 3.0 °F -12.5 °F -7.1 °F 63% 30.20 in 10.0 mi South 10.4 mph - N/A   Clear
5:35 PM 1.6 °F -13.3 °F -8.1 °F 64% 30.20 in 10.0 mi South 9.2 mph - N/A   Clear
5:55 PM 1.2 °F -13.7 °F -7.8 °F 66% 30.20 in 10.0 mi South 9.2 mph - N/A   Clear
6:15 PM 1.6 °F -14.2 °F -7.4 °F 66% 30.20 in 10.0 mi South 10.4 mph - N/A   Clear
6:35 PM -0.4 °F -13.4 °F -8.7 °F 68% 30.19 in 10.0 mi South 6.9 mph - N/A   Clear
6:55 PM -1.7 °F -18.3 °F -9.4 °F 70% 30.18 in 10.0 mi South 10.4 mph - N/A   Clear
7:15 PM -0.4 °F -17.6 °F -8.0 °F 70% 30.17 in 10.0 mi South 11.5 mph - N/A   Clear
7:35 PM 0.5 °F -16.5 °F -7.6 °F 69% 30.17 in 10.0 mi South 11.5 mph - N/A   Clear
7:55 PM 1.2 °F -14.7 °F -6.5 °F 70% 30.16 in 10.0 mi South 10.4 mph - N/A   Clear
8:15 PM 1.0 °F -14.9 °F -6.5 °F 71% 30.15 in 10.0 mi South 10.4 mph - N/A   Clear
8:35 PM 1.9 °F -12.9 °F -5.6 °F 71% 30.15 in 10.0 mi South 9.2 mph - N/A   Clear
8:55 PM 1.4 °F -12.5 °F -6.0 °F 71% 30.15 in 10.0 mi South 8.1 mph - N/A   Clear
9:15 PM 1.4 °F -15.3 °F -6.2 °F 71% 30.15 in 10.0 mi South 11.5 mph - N/A   Clear
9:35 PM 2.1 °F -15.2 °F -5.8 °F 69% 30.14 in 10.0 mi South 12.7 mph - N/A   Clear
9:55 PM 1.8 °F -14.9 °F -6.0 °F 70% 30.14 in 10.0 mi South 11.5 mph - N/A   Clear
10:15 PM 1.8 °F -14.9 °F -6.2 °F 69% 30.14 in 10.0 mi South 11.5 mph - N/A   Clear
10:35 PM 1.9 °F -13.8 °F -6.0 °F 69% 30.13 in 10.0 mi South 10.4 mph - N/A   Clear
10:55 PM 1.8 °F -14.9 °F -6.0 °F 70% 30.13 in 10.0 mi South 11.5 mph - N/A   Clear
11:15 PM 1.8 °F -14.9 °F -5.8 °F 71% 30.12 in 10.0 mi South 11.5 mph - N/A   Clear
11:35 PM 1.8 °F -16.4 °F -5.8 °F 71% 30.12 in 10.0 mi South 13.8 mph - N/A   Clear
11:55 PM 1.8 °F -16.4 °F -5.8 °F 71% 30.11 in 10.0 mi South 13.8 mph - N/A   Scattered Clouds